Regional Weather Roundup
Issued by NWS Charleston, SC

Current Version | Previous Version | Text Only | Print | Product List | Glossary Off
Versions: 1 2 3 4 5 6 7 8 9 10 11 12 13 14 15 16 17 18 19 20 21 22 23 24 25 26 27 28 29 30 31 32 33 34 35 36 37 38 39 40 41 42 43 44 45 46 47 48 49 50

000
ASUS42 KCHS 171025
RWRCHS

REGIONAL WEATHER ROUNDUP
NATIONAL WEATHER SERVICE CHARLESTON SC
600 AM EDT WED SEP 17 2014

NOTE: "FAIR" INDICATES FEW OR NO CLOUDS BELOW 12,000 FEET WITH NO
SIGNIFICANT WEATHER AND/OR OBSTRUCTIONS TO VISIBILITY.

NOT ALL STATIONS ARE QUALITY CONTROLLED BY THE NATIONAL
WEATHER SERVICE. USE DATA WITH CAUTION...ESPECIALLY
DEWPOINT OBSERVATIONS.

SCZ027-030-031-034>040-042>050-171100-
...SOUTH CAROLINA...

CITY           SKY/WX    TMP DP  RH WIND       PRES   REMARKS
N CHARLESTON   MOCLDY    72  69  90 NE8       29.93R
WATERFRONT PRK   N/A     75 N/A N/A N15         N/A
FORT JOHNSON   NOT AVBL
MOUNT PLEASANT PTSUNNY   70  70 100 CALM      29.93R
JOHNS ISLAND   PTSUNNY   73  73 100 CALM      29.93R
PINOPOLIS        N/A     73  70  88 E10       29.86S
MONCKS CORNER    N/A     70  70 100 CALM      29.93S
SUMMERVILLE    CLOUDY    70  70 100 CALM      29.94R FOG
BEAUFORT MCAS  CLOUDY    74  72  93 W6        29.91S
BEAUFORT ARPT  CLOUDY    73  73 100 N7        29.91R FOG
HILTON HEAD IS NOT AVBL
GEORGETOWN     NOT AVBL
WALTERBORO     CLOUDY    70 N/A N/A NE3       29.93S HAZE
ORANGEBURG     LGT RAIN  71  69  93 E3        29.93F
BARNWELL       CLOUDY    72  70  94 E7        29.93S
AIKEN          FAIR      68  68 100 CALM      29.96S
MANNING        FAIR      68 N/A N/A CALM      29.92F
KINGSTREE      NOT AVBL
COLUMBIA       PTCLDY    69  65  86 E3        29.92S
SUMTER         MOCLDY    67  63  89 SW2       29.91F
FLORENCE       MOCLDY    67  65  93 NE5       29.91F
MYRTLE BEACH   PTCLDY    70  66  88 W6        29.89F
N MYRTLE BEACH MOCLDY    69  65  86 NW3       29.89F

$$

GAZ063-065-086>088-099>101-113>116-118-119-134-136>141-150-171100-
...GEORGIA...

CITY           SKY/WX    TMP DP  RH WIND       PRES   REMARKS
SAVANNAH ARPT  PTCLDY    70  67  90 CALM      29.92R
HUNTER AAF     PTCLDY    70  69  99 N3        29.90R
FORT STEWART   CLEAR     69  68  95 CALM      29.90S
STATESBORO     NOT AVBL
SYLVANIA       CLOUDY    71  71  99 CALM      29.93R FOG
CLAXTON        FAIR     N/A N/A N/A CALM      29.92S
THOMSON        MOCLDY    68  68 100 CALM      29.98R
AUGUSTA-BUSH   CLOUDY    70  67  90 CALM      29.93R
AUGUSTA-DANIEL CLOUDY    71  68  90 E6        29.94S
SWAINSBORO     FAIR      68  68 100 CALM      29.93S
VIDALIA        CLEAR     68  68 100 CALM      29.93R
ALMA           PTCLDY    71  69  93 CALM      29.92S
WAYCROSS       FOG       74  74 100 CALM      29.92S VSB 1
JESUP          FAIR      70  70 100 CALM      29.92S
BRUNSWICK      MOCLDY    72  70  94 NW5       29.92R
SAINT SIMONS   MOCLDY    72  69  90 NW3       29.90S

$$

SCZ027-028-034-036>038-045-046-048>050-GAZ119-141-171100-
...LAKE AND SUPPLEMENTAL COASTAL OBSERVATIONS...

STATION/POSITION TIME  TEMP    WIND        PRES    WAVE   SWELL
                       AIR SEA DIR/SP/G            HT/PER HT/PER/DIR
                 (UTC) (F)     (DEG/KT/KT) (MB)    (FT/S) (FT/S/D)
UPR LAKE MARION  NOT AVBL
WINYAH BAY       1000   71     340/  4     1012.0F
LAKE MURRAY      1000   70     110/  4/  6 1013.2S
ACE BASIN NERRS  1000   71        CALM     1013.0S
FORT PULASKI     1000   72     310/  5/  5 1013.1R
SAPELO ISLAND    1000   73     350/  5     1013.0S

$$

ANZ835-935-AMZ111-154-330-350-352-354-374-450-454-472-171100-
...C-MAN AND BUOY OBSERVATIONS...

STATION/POSITION TIME  TEMP    WIND        PRES    WAVE   SWELL
                       AIR SEA DIR/SP/G            HT/PER HT/PER/DIR
                 (UTC) (F)     (DEG/KT/KT) (MB)    (FT/S) (FT/S/D)
FOLLY BEACH CMAN 1000   73     360/ 13/ 16 1013.7R
BUOY 41004       1000   75 83  310/  4/  6 1012.6R   2/12   2/12
BUOY 41008       1000   78 84  340/ 10/ 12 1012.2R   1/13   2/320/13
5E ST. MARYS GA  1000      83                N/A     2/13   2/110/13
FRYING PAN BUOY  NOT AVBL
BUOY 41025       1000   75      20/  8/ 12 1012.7F   3/14   3/110/14
CAPE LOOKOUT NC  1000   74      70/  8/  9 1012.5R
BUOY 41002       0950   77 82  210/  4/  6 1012.4F   6/14   5/100/14
BUOY 41010       1000   79 85  250/ 16/ 17 1012.8R   3/14   2/110/14
BUOY 41012       NOT AVBL
ST AUGUSTINE FL  1000   73     280/  6/  7 1013.5R
CAPERS NEARSHORE 0900   76      20/ 10/ 12   N/A
FRIPP NEARSHORE  NOT AVBL


$$



USA.gov is the U.S. government's official web portal to all federal, state and local government web resources and services.